Time,TemperatureF,DewpointF,PressureIn,WindDirection,WindDirectionDegrees,WindSpeedMPH,WindSpeedGustMPH,Humidity,HourlyPrecipIn,Conditions,Clouds,dailyrainin,SolarRadiationWatts/m^2,SoftwareType,DateUTC
2013-06-19 00:01:00,52.0,49.0,-100.00,ENE,60,0.0,3.0,90,0.00,,,0.00,0.000000,,2013-06-19 05:01:00,
2013-06-19 00:11:00,52.0,49.0,-100.00,ENE,60,0.0,3.0,90,0.00,,,0.00,0.000000,,2013-06-19 05:11:00,
2013-06-19 00:32:00,50.0,48.0,-100.00,North,9,0.0,1.0,93,0.00,,,0.00,0.000000,,2013-06-19 05:32:00,
2013-06-19 00:43:00,50.0,48.0,-100.00,North,9,0.0,1.0,93,0.00,,,0.00,0.000000,,2013-06-19 05:43:00,
2013-06-19 00:52:00,50.0,48.0,-100.00,North,9,0.0,1.0,93,0.00,,,0.00,0.000000,,2013-06-19 05:52:00,
2013-06-19 01:02:00,50.0,48.0,-100.00,North,9,0.0,1.0,93,0.00,,,0.00,0.000000,,2013-06-19 06:02:00,
2013-06-19 01:11:00,50.0,48.0,-100.00,North,9,0.0,1.0,93,0.00,,,0.00,0.000000,,2013-06-19 06:11:00,
2013-06-19 01:34:00,47.0,46.0,-100.00,ESE,118,0.0,0.0,95,0.00,,,0.00,0.000000,,2013-06-19 06:34:00,
2013-06-19 01:43:00,47.0,46.0,-100.00,ESE,118,0.0,0.0,95,0.00,,,0.00,0.000000,,2013-06-19 06:43:00,
2013-06-19 01:52:00,47.0,46.0,-100.00,ESE,118,0.0,0.0,95,0.00,,,0.00,0.000000,,2013-06-19 06:52:00,
2013-06-19 02:01:00,47.0,46.0,-100.00,ESE,118,0.0,0.0,95,0.00,,,0.00,0.000000,,2013-06-19 07:01:00,
2013-06-19 02:11:00,47.0,46.0,-100.00,ESE,118,0.0,0.0,95,0.00,,,0.00,0.000000,,2013-06-19 07:11:00,
2013-06-19 02:33:00,46.0,45.0,-100.00,ESE,118,0.0,0.0,95,0.00,,,0.00,0.000000,,2013-06-19 07:33:00,
2013-06-19 02:43:00,46.0,45.0,-100.00,ESE,118,0.0,0.0,95,0.00,,,0.00,0.000000,,2013-06-19 07:43:00,
2013-06-19 02:53:00,46.0,45.0,-100.00,ESE,118,0.0,0.0,95,0.00,,,0.00,0.000000,,2013-06-19 07:53:00,
2013-06-19 03:02:00,46.0,45.0,-100.00,ESE,118,0.0,0.0,95,0.00,,,0.00,0.000000,,2013-06-19 08:02:00,
2013-06-19 03:11:00,46.0,45.0,-100.00,ESE,118,0.0,0.0,95,0.00,,,0.00,0.000000,,2013-06-19 08:11:00,
2013-06-19 03:34:00,45.0,44.0,-100.00,WNW,289,0.0,2.0,95,0.00,,,0.00,0.000000,,2013-06-19 08:34:00,
2013-06-19 03:43:00,45.0,44.0,-100.00,WNW,289,0.0,2.0,95,0.00,,,0.00,0.000000,,2013-06-19 08:43:00,
2013-06-19 03:54:00,45.0,44.0,-100.00,WNW,289,0.0,2.0,95,0.00,,,0.00,0.000000,,2013-06-19 08:54:00,
2013-06-19 04:02:00,45.0,44.0,-100.00,WNW,289,0.0,2.0,95,0.00,,,0.00,0.000000,,2013-06-19 09:02:00,
2013-06-19 04:11:00,45.0,44.0,-100.00,WNW,289,0.0,2.0,95,0.00,,,0.00,0.000000,,2013-06-19 09:11:00,
2013-06-19 04:12:00,43.0,42.0,-100.00,ESE,111,0.0,0.0,95,0.00,,,0.00,0.000000,,2013-06-19 09:12:00,
2013-06-19 04:34:00,43.0,42.0,-100.00,ESE,111,0.0,0.0,95,0.00,,,0.00,0.000000,,2013-06-19 09:34:00,
2013-06-19 04:44:00,43.0,42.0,-100.00,ESE,111,0.0,0.0,95,0.00,,,0.00,0.000000,,2013-06-19 09:44:00,
2013-06-19 04:53:00,43.0,42.0,-100.00,ESE,111,0.0,0.0,95,0.00,,,0.00,0.000000,,2013-06-19 09:53:00,
2013-06-19 05:02:00,43.0,42.0,-100.00,ESE,111,0.0,0.0,95,0.00,,,0.00,0.000000,,2013-06-19 10:02:00,
2013-06-19 05:33:00,42.0,41.0,-100.00,NNE,13,0.0,2.0,95,0.00,,,0.00,0.000000,,2013-06-19 10:33:00,
2013-06-19 05:43:00,42.0,41.0,-100.00,NNE,13,0.0,2.0,95,0.00,,,0.00,0.000000,,2013-06-19 10:43:00,
2013-06-19 05:53:00,42.0,41.0,-100.00,NNE,13,0.0,2.0,95,0.00,,,0.00,0.000000,,2013-06-19 10:53:00,
2013-06-19 06:02:00,42.0,41.0,-100.00,NNE,13,0.0,2.0,95,0.00,,,0.00,0.000000,,2013-06-19 11:02:00,
2013-06-19 06:11:00,42.0,41.0,-100.00,NNE,13,0.0,2.0,95,0.00,,,0.00,0.000000,,2013-06-19 11:11:00,
2013-06-19 06:12:00,43.0,42.0,-100.00,NW,321,0.0,1.0,96,0.00,,,0.00,14.000000,,2013-06-19 11:12:00,
2013-06-19 06:33:00,43.0,42.0,-100.00,NW,321,0.0,1.0,96,0.00,,,0.00,14.000000,,2013-06-19 11:33:00,
2013-06-19 06:43:00,43.0,42.0,-100.00,NW,321,0.0,1.0,96,0.00,,,0.00,14.000000,,2013-06-19 11:43:00,
2013-06-19 06:54:00,43.0,42.0,-100.00,NW,321,0.0,1.0,96,0.00,,,0.00,14.000000,,2013-06-19 11:54:00,
2013-06-19 07:01:00,43.0,42.0,-100.00,NW,321,0.0,1.0,96,0.00,,,0.00,14.000000,,2013-06-19 12:01:00,
2013-06-19 07:12:00,54.0,50.0,-100.00,NNW,335,0.0,2.0,85,0.00,,,0.00,172.000000,,2013-06-19 12:12:00,
2013-06-19 07:34:00,54.0,50.0,-100.00,NNW,335,0.0,2.0,85,0.00,,,0.00,172.000000,,2013-06-19 12:34:00,
2013-06-19 07:44:00,54.0,50.0,-100.00,NNW,335,0.0,2.0,85,0.00,,,0.00,172.000000,,2013-06-19 12:44:00,
2013-06-19 07:53:00,54.0,50.0,-100.00,NNW,335,0.0,2.0,85,0.00,,,0.00,172.000000,,2013-06-19 12:53:00,
2013-06-19 08:02:00,54.0,50.0,-100.00,NNW,335,0.0,2.0,85,0.00,,,0.00,172.000000,,2013-06-19 13:02:00,
2013-06-19 08:12:00,61.0,50.0,-100.00,SSE,160,1.0,4.0,68,0.00,,,0.00,347.000000,,2013-06-19 13:12:00,
2013-06-19 08:33:00,61.0,50.0,-100.00,SSE,160,1.0,4.0,68,0.00,,,0.00,347.000000,,2013-06-19 13:33:00,
2013-06-19 08:43:00,61.0,50.0,-100.00,SSE,160,1.0,4.0,68,0.00,,,0.00,347.000000,,2013-06-19 13:43:00,
2013-06-19 08:54:00,61.0,50.0,-100.00,SSE,160,1.0,4.0,68,0.00,,,0.00,347.000000,,2013-06-19 13:54:00,
2013-06-19 09:02:00,61.0,50.0,-100.00,SSE,160,1.0,4.0,68,0.00,,,0.00,347.000000,,2013-06-19 14:02:00,
2013-06-19 09:34:00,66.0,46.0,-100.00,ENE,74,2.0,6.0,48,0.00,,,-99.99,505.000000,,2013-06-19 14:34:00,
2013-06-19 09:44:00,66.0,46.0,-100.00,ENE,74,2.0,6.0,48,0.00,,,-99.99,505.000000,,2013-06-19 14:44:00,
2013-06-19 09:53:00,66.0,46.0,-100.00,ENE,74,2.0,6.0,48,0.00,,,-99.99,505.000000,,2013-06-19 14:53:00,
2013-06-19 10:01:00,66.0,46.0,-100.00,ENE,74,2.0,6.0,48,0.00,,,-99.99,505.000000,,2013-06-19 15:01:00,
2013-06-19 10:11:00,66.0,46.0,-100.00,ENE,74,2.0,6.0,48,0.00,,,-99.99,505.000000,,2013-06-19 15:11:00,
2013-06-19 10:33:00,67.0,45.0,-100.00,South,169,4.0,8.0,45,0.00,,,0.00,682.000000,,2013-06-19 15:33:00,
2013-06-19 10:43:00,67.0,45.0,-100.00,South,169,4.0,8.0,45,0.00,,,0.00,682.000000,,2013-06-19 15:43:00,
2013-06-19 10:53:00,67.0,45.0,-100.00,South,169,4.0,8.0,45,0.00,,,0.00,682.000000,,2013-06-19 15:53:00,
2013-06-19 11:01:00,67.0,45.0,-100.00,South,169,4.0,8.0,45,0.00,,,0.00,682.000000,,2013-06-19 16:01:00,
2013-06-19 11:11:00,67.0,45.0,-100.00,South,169,4.0,8.0,45,0.00,,,0.00,682.000000,,2013-06-19 16:11:00,
2013-06-19 11:12:00,71.0,48.0,-100.00,WSW,255,3.0,8.0,44,0.00,,,0.00,801.000000,,2013-06-19 16:12:00,
2013-06-19 11:34:00,71.0,48.0,-100.00,WSW,255,3.0,8.0,44,0.00,,,0.00,801.000000,,2013-06-19 16:34:00,
2013-06-19 11:43:00,71.0,48.0,-100.00,WSW,255,3.0,8.0,44,0.00,,,0.00,801.000000,,2013-06-19 16:43:00,
2013-06-19 11:53:00,71.0,48.0,-100.00,WSW,255,3.0,8.0,44,0.00,,,0.00,801.000000,,2013-06-19 16:53:00,
2013-06-19 12:02:00,71.0,48.0,-100.00,WSW,255,3.0,8.0,44,0.00,,,0.00,801.000000,,2013-06-19 17:02:00,
2013-06-19 12:34:00,73.0,48.0,-100.00,South,172,4.0,10.0,41,0.00,,,0.00,896.000000,,2013-06-19 17:34:00,
2013-06-19 12:43:00,73.0,48.0,-100.00,South,172,4.0,10.0,41,0.00,,,0.00,896.000000,,2013-06-19 17:43:00,
2013-06-19 12:53:00,73.0,48.0,-100.00,South,172,4.0,10.0,41,0.00,,,0.00,896.000000,,2013-06-19 17:53:00,
2013-06-19 13:02:00,73.0,48.0,-100.00,South,172,4.0,10.0,41,0.00,,,0.00,896.000000,,2013-06-19 18:02:00,
2013-06-19 13:11:00,73.0,48.0,-100.00,South,172,4.0,10.0,41,0.00,,,0.00,896.000000,,2013-06-19 18:11:00,
2013-06-19 13:12:00,76.0,49.0,-100.00,East,82,2.0,9.0,38,0.00,,,0.00,944.000000,,2013-06-19 18:12:00,
2013-06-19 13:33:00,76.0,49.0,-100.00,East,82,2.0,9.0,38,0.00,,,0.00,944.000000,,2013-06-19 18:33:00,
2013-06-19 13:44:00,76.0,49.0,-100.00,East,82,2.0,9.0,38,0.00,,,0.00,944.000000,,2013-06-19 18:44:00,
2013-06-19 13:53:00,76.0,49.0,-100.00,East,82,2.0,9.0,38,0.00,,,0.00,944.000000,,2013-06-19 18:53:00,
2013-06-19 14:01:00,76.0,49.0,-100.00,East,82,2.0,9.0,38,0.00,,,0.00,944.000000,,2013-06-19 19:01:00,
2013-06-19 14:32:00,77.0,49.0,-100.00,East,91,3.0,9.0,38,0.00,,,0.00,879.000000,,2013-06-19 19:32:00,
2013-06-19 14:43:00,77.0,49.0,-100.00,East,91,3.0,9.0,38,0.00,,,0.00,879.000000,,2013-06-19 19:43:00,
2013-06-19 14:53:00,77.0,49.0,-100.00,East,91,3.0,9.0,38,0.00,,,0.00,879.000000,,2013-06-19 19:53:00,
2013-06-19 15:02:00,77.0,49.0,-100.00,East,91,3.0,9.0,38,0.00,,,0.00,879.000000,,2013-06-19 20:02:00,
2013-06-19 15:11:00,77.0,49.0,-100.00,East,91,3.0,9.0,38,0.00,,,0.00,879.000000,,2013-06-19 20:11:00,
2013-06-19 15:33:00,78.0,50.0,-100.00,SE,128,3.0,9.0,38,0.00,,,0.00,817.000000,,2013-06-19 20:33:00,
2013-06-19 15:43:00,78.0,50.0,-100.00,SE,128,3.0,9.0,38,0.00,,,0.00,817.000000,,2013-06-19 20:43:00,
2013-06-19 15:52:00,78.0,50.0,-100.00,SE,128,3.0,9.0,38,0.00,,,0.00,817.000000,,2013-06-19 20:52:00,
2013-06-19 16:02:00,78.0,50.0,-100.00,SE,128,3.0,9.0,38,0.00,,,0.00,817.000000,,2013-06-19 21:02:00,
2013-06-19 16:11:00,78.0,50.0,-100.00,SE,128,3.0,9.0,38,0.00,,,0.00,817.000000,,2013-06-19 21:11:00,
2013-06-19 16:33:00,78.0,52.0,-100.00,SE,144,4.0,16.0,40,0.00,,,0.00,672.000000,,2013-06-19 21:33:00,
2013-06-19 16:44:00,78.0,52.0,-100.00,SE,144,4.0,16.0,40,0.00,,,0.00,672.000000,,2013-06-19 21:44:00,
2013-06-19 16:52:00,78.0,52.0,-100.00,SE,144,4.0,16.0,40,0.00,,,0.00,672.000000,,2013-06-19 21:52:00,
2013-06-19 17:02:00,78.0,52.0,-100.00,SE,144,4.0,16.0,40,0.00,,,0.00,672.000000,,2013-06-19 22:02:00,
2013-06-19 17:11:00,78.0,52.0,-100.00,SE,144,4.0,16.0,40,0.00,,,0.00,672.000000,,2013-06-19 22:11:00,
2013-06-19 17:12:00,76.0,51.0,-100.00,South,172,3.0,11.0,42,0.00,,,0.00,477.000000,,2013-06-19 22:12:00,
2013-06-19 17:34:00,76.0,51.0,-100.00,South,172,3.0,11.0,42,0.00,,,0.00,477.000000,,2013-06-19 22:34:00,
2013-06-19 17:43:00,76.0,51.0,-100.00,South,172,3.0,11.0,42,0.00,,,0.00,477.000000,,2013-06-19 22:43:00,
2013-06-19 17:53:00,76.0,51.0,-100.00,South,172,3.0,11.0,42,0.00,,,0.00,477.000000,,2013-06-19 22:53:00,
2013-06-19 18:02:00,76.0,51.0,-100.00,South,172,3.0,11.0,42,0.00,,,0.00,477.000000,,2013-06-19 23:02:00,
2013-06-19 18:12:00,76.0,51.0,-100.00,SSE,157,4.0,9.0,42,0.00,,,0.00,274.000000,,2013-06-19 23:12:00,
2013-06-19 18:34:00,76.0,51.0,-100.00,SSE,157,4.0,9.0,42,0.00,,,0.00,274.000000,,2013-06-19 23:34:00,
2013-06-19 18:43:00,76.0,51.0,-100.00,SSE,157,4.0,9.0,42,0.00,,,0.00,274.000000,,2013-06-19 23:43:00,
2013-06-19 18:52:00,76.0,51.0,-100.00,SSE,157,4.0,9.0,42,0.00,,,0.00,274.000000,,2013-06-19 23:52:00,
2013-06-19 19:01:00,76.0,51.0,-100.00,SSE,157,4.0,9.0,42,0.00,,,0.00,274.000000,,2013-06-20 00:01:00,
2013-06-19 20:34:00,72.0,56.0,-100.00,SSE,149,0.0,6.0,58,-99.99,,,0.00,100.000000,,2013-06-20 01:34:00,
2013-06-19 20:44:00,72.0,56.0,-100.00,SSE,149,0.0,6.0,58,-99.99,,,0.00,100.000000,,2013-06-20 01:44:00,
2013-06-19 20:53:00,72.0,56.0,-100.00,SSE,149,0.0,6.0,58,-99.99,,,0.00,100.000000,,2013-06-20 01:53:00,
2013-06-19 21:02:00,72.0,56.0,-100.00,SSE,149,0.0,6.0,58,-99.99,,,0.00,100.000000,,2013-06-20 02:02:00,
2013-06-19 21:11:00,72.0,56.0,-100.00,SSE,149,0.0,6.0,58,-99.99,,,0.00,100.000000,,2013-06-20 02:11:00,
2013-06-19 21:34:00,63.0,56.0,-100.00,SSE,148,0.0,0.0,79,0.00,,,0.00,7.000000,,2013-06-20 02:34:00,
2013-06-19 21:43:00,63.0,56.0,-100.00,SSE,148,0.0,0.0,79,0.00,,,0.00,7.000000,,2013-06-20 02:43:00,
2013-06-19 21:52:00,63.0,56.0,-100.00,SSE,148,0.0,0.0,79,0.00,,,0.00,7.000000,,2013-06-20 02:52:00,
2013-06-19 22:02:00,63.0,56.0,-100.00,SSE,148,0.0,0.0,79,0.00,,,0.00,7.000000,,2013-06-20 03:02:00,
2013-06-19 22:11:00,63.0,56.0,-100.00,SSE,148,0.0,0.0,79,0.00,,,0.00,7.000000,,2013-06-20 03:11:00,
2013-06-19 22:33:00,59.0,56.0,-100.00,SSE,148,0.0,0.0,91,0.00,,,0.00,0.000000,,2013-06-20 03:33:00,
2013-06-19 22:43:00,59.0,56.0,-100.00,SSE,148,0.0,0.0,91,0.00,,,0.00,0.000000,,2013-06-20 03:43:00,
2013-06-19 22:54:00,59.0,56.0,-100.00,SSE,148,0.0,0.0,91,0.00,,,0.00,0.000000,,2013-06-20 03:54:00,
2013-06-19 23:02:00,59.0,56.0,-100.00,SSE,148,0.0,0.0,91,0.00,,,0.00,0.000000,,2013-06-20 04:02:00,
2013-06-19 23:11:00,59.0,56.0,-100.00,SSE,148,0.0,0.0,91,0.00,,,0.00,0.000000,,2013-06-20 04:11:00,
2013-06-19 23:12:00,57.0,55.0,-100.00,SSE,149,0.0,1.0,94,0.00,,,0.00,0.000000,,2013-06-20 04:12:00,
2013-06-19 23:34:00,57.0,55.0,-100.00,SSE,149,0.0,1.0,94,0.00,,,0.00,0.000000,,2013-06-20 04:34:00,
2013-06-19 23:44:00,57.0,55.0,-100.00,SSE,149,0.0,1.0,94,0.00,,,0.00,0.000000,,2013-06-20 04:44:00,
2013-06-19 23:54:00,57.0,55.0,-100.00,SSE,149,0.0,1.0,94,0.00,,,0.00,0.000000,,2013-06-20 04:54:00,